EW2835 Weather Reports


time (UTC)temp
F
wind
direction
speed
knots
gust
knots
rain 1hr
in
rain 24hr
in
rain mn
in
humidity
%
barometer
mb
20260831230024 57 200 0.0 3.5 0.00 0.16 0.00 95 1013.3
20260831224517 57 173 0.0 3.5 0.00 0.16 0.00 95 1013.2
20260831223015 57 226 0.9 6.1 0.00 0.16 0.00 94 1013.1
20260831221522 58 184 0.9 7.0 0.00 0.16 0.00 94 1013.0
20260831220019 58 192 0.9 3.5 0.00 0.16 0.00 94 1012.9
20260831214509 58 176 0.0 2.6 0.00 0.16 0.16 94 1012.9
20260831213025 59 144 0.0 6.1 0.00 0.16 0.16 94 1012.8
20260831211506 59 199 0.0 3.5 0.00 0.16 0.16 94 1012.6
20260831210005 59 177 0.9 6.1 0.00 0.16 0.16 93 1012.6
20260831204504 59 180 0.9 7.8 0.02 0.16 0.16 93 1012.6
20260831203005 60 194 0.9 5.2 0.03 0.16 0.16 92 1012.4
20260831201503 60 186 0.0 5.2 0.03 0.16 0.16 91 1012.1
20260831200001 60 154 0.0 1.7 0.03 0.16 0.16 90 1011.9
20260831194501 60 204 0.9 7.8 0.02 0.14 0.14 88 1011.9
20260831193101 61 163 0.9 3.5 0.00 0.13 0.13 87 1012.1
20260831191600 61 198 0.0 1.7 0.01 0.13 0.13 86 1011.8
20260831190136 61 195 0.0 1.7 0.01 0.13 0.13 85 1011.5
20260831184558 62 267 0.0 2.6 0.01 0.13 0.13 83 1011.2
20260831183059 63 184 0.0 1.7 0.02 0.13 0.13 82 1011.1
20260831181601 64 228 0.9 7.0 0.01 0.12 0.12 78 1011.3
20260831180057 66 317 0.9 9.6 0.01 0.12 0.12 77 1011.5
20260831174600 68 250 1.7 7.8 0.01 0.12 0.12 72 1011.2
20260831173056 70 310 0.9 6.1 0.00 0.11 0.11 64 1010.8
20260831171554 72 178 4.3 10.4 0.00 0.11 0.11 60 1010.7
20260831170054 73 279 2.6 13.9 0.00 0.11 0.11 53 1010.3
20260831164559 73 196 4.3 12.2 0.00 0.11 0.11 53 1009.9
20260831163053 73 265 1.7 9.6 0.00 0.11 0.11 55 1009.9
20260831160055 74 161 1.7 9.6 0.00 0.11 0.11 54 1009.9
20260831154538 75 247 3.5 13.0 0.00 0.11 0.11 53 1009.7
20260831153116 75 290 3.5 9.6 0.00 0.11 0.11 56 1009.7
20260831151536 75 169 2.6 10.4 0.00 0.11 0.11 56 1009.9
20260831150037 75 179 1.7 7.8 0.00 0.11 0.11 60 1009.9
20260831144532 76 157 2.6 13.0 0.00 0.11 0.11 57 1010.0
20260831143031 75 249 4.3 13.0 0.00 0.11 0.11 57 1010.1
20260831141530 77 213 3.5 13.0 0.00 0.11 0.11 58 1010.0
20260831140029 77 298 3.5 11.3 0.00 0.11 0.11 57 1010.2
20260831134528 78 209 4.3 12.2 0.00 0.11 0.11 53 1010.2
20260831133029 79 330 2.6 11.3 0.00 0.11 0.11 57 1010.3
20260831131527 78 194 3.5 11.3 0.00 0.11 0.11 55 1010.4
20260831130021 78 214 5.2 13.0 0.00 0.11 0.11 57 1010.4
20260831124521 78 308 2.6 15.6 0.00 0.11 0.11 58 1010.5
20260831123036 76 147 1.7 11.3 0.00 0.11 0.11 62 1010.5
20260831121525 78 193 4.3 10.4 0.00 0.11 0.11 58 1010.5
20260831120031 76 142 2.6 8.7 0.00 0.11 0.11 62 1010.6
20260831114519 77 174 2.6 10.4 0.00 0.11 0.11 64 1010.7
20260831113019 79 231 4.3 10.4 0.00 0.11 0.11 62 1010.6
20260831111510 77 63 2.6 9.6 0.00 0.11 0.11 65 1010.8
20260831110059 76 197 1.7 12.2 0.00 0.11 0.11 66 1010.8
20260831104557 77 192 1.7 9.6 0.00 0.11 0.11 66 1010.9
20260831103053 75 215 3.5 8.7 0.00 0.11 0.11 70 1010.8
20260831101556 75 298 0.9 7.0 0.00 0.11 0.11 72 1010.9
20260831100053 74 233 0.9 7.8 0.00 0.11 0.11 76 1011.0
20260831094600 72 197 2.6 7.8 0.00 0.11 0.11 80 1011.2
20260831093041 69 252 0.9 2.6 0.00 0.11 0.11 88 1011.2
20260831091537 67 284 0.9 2.6 0.01 0.11 0.11 89 1011.3
20260831090034 65 186 1.7 6.1 0.01 0.11 0.11 95 1011.5
20260831084530 61 168 0.9 2.6 0.02 0.11 0.11 96 1011.6
20260831083027 60 170 0.0 3.5 0.02 0.11 0.11 95 1011.6
20260831081539 60 98 0.9 2.6 0.02 0.10 0.10 95 1011.5
20260831080025 60 169 0.0 2.6 0.07 0.10 0.10 94 1011.5
20260831074526 60 144 0.0 3.5 0.09 0.09 0.09 94 1011.7
20260831073024 60 175 0.9 3.5 0.09 0.09 0.09 93 1011.5
20260831071520 60 225 0.9 5.2 0.08 0.08 0.08 92 1011.4
20260831070023 60 182 0.0 1.7 0.03 0.03 0.03 90 1011.3
20260831064514 60 161 0.0 3.5 0.00 0.00 0.00 89 1011.1
20260831063014 60 123 0.0 1.7 0.00 0.00 0.00 90 1010.8
20260831061513 59 81 0.0 0.0 0.00 0.00 0.00 92 1010.8
20260831060015 59 81 0.0 0.0 0.00 0.00 0.00 92 1010.8
20260831054511 58 81 0.0 0.0 0.00 0.00 0.00 92 1010.7
20260831053010 58 81 0.0 0.0 0.00 0.00 0.00 92 1010.7
20260831051506 57 81 0.0 0.0 0.00 0.00 0.00 92 1010.8
20260831050005 57 161 0.0 0.0 0.00 0.00 0.00 93 1011.0
20260831044504 56 161 0.0 0.0 0.00 0.00 0.00 92 1011.1
20260831043004 56 161 0.0 0.0 0.00 0.00 0.00 92 1011.0
20260831041605 56 161 0.0 0.0 0.00 0.00 0.00 92 1010.9
20260831040100 55 161 0.0 0.0 0.00 0.00 0.00 91 1010.9
20260831034557 55 161 0.0 0.0 0.00 0.00 0.00 91 1011.4
20260831033102 55 161 0.0 0.0 0.00 0.00 0.00 91 1011.4
20260831031553 55 161 0.0 0.0 0.00 0.00 0.00 90 1011.5
20260831030053 55 161 0.0 0.0 0.00 0.00 0.00 90 1011.5
20260831024604 55 161 0.0 0.0 0.00 0.00 0.00 90 1011.4
20260831023050 56 161 0.0 0.0 0.00 0.00 0.00 90 1011.5
20260831021557 56 161 0.0 0.0 0.00 0.00 0.00 90 1011.7
20260831020048 56 161 0.0 0.9 0.00 0.00 0.00 90 1011.7
20260831014544 56 169 0.0 1.7 0.00 0.00 0.00 89 1011.8
20260831013042 56 170 0.0 1.7 0.00 0.00 0.00 88 1011.9
20260831011542 57 254 0.0 0.0 0.00 0.00 0.00 87 1012.1
20260831010104 57 254 0.0 0.0 0.00 0.00 0.00 87 1012.2
20260831004542 58 254 0.0 0.0 0.00 0.00 0.00 87 1012.3
20260831003034 58 254 0.0 0.0 0.00 0.00 0.00 86 1012.5
20260831001549 58 254 0.0 0.0 0.00 0.00 0.00 85 1012.5
20260831000029 59 254 0.0 0.0 0.00 0.00 0.00 85 1012.5
20260830234530 59 254 0.0 0.0 0.00 0.00 0.00 85 1012.4
20260830233026 59 254 0.0 0.0 0.00 0.00 0.00 84 1012.4
20260830231529 60 254 0.0 0.0 0.00 0.00 0.00 84 1012.4